Location: Champignolles
(47.0543°N, 4.5663°E)
Time: 07:12:18
(UTC+00:00)

Cosmos 923 Rocket - Pass Details

Date: 15 April 2021
Orbit: 759 x 785 km, 74.0° (Epoch: 13 May)

Event Time Altitude Azimuth Distance (km) Brightness Sun altitude
Rises 01:16:12 0° 346° (NNW) 3,230 7.9 -29.4°
Reaches altitude 10° 01:19:07 10° 2° (N) 2,301 7.2 -29.2°
Maximum altitude 01:23:07 22° 52° (NE) 1,626 6.3 -28.8°
Drops below altitude 10° 01:27:08 10° 103° (ESE) 2,298 6.6 -28.5°
Sets 01:30:01 0° 118° (ESE) 3,223 7.3 -28.3°
